User: anonymous   Login
Location: *
(2.5500°S, 65.9667°W)
Time: 03:42:14
(UTC+00:00)
Language:

Cosmos 2084 - Orbit

View from above orbital plane
View from above orbital plane
View from above satellite
View from above satellite

Ground track
Ground track

The orbit data is extracted from the following two-line orbital elements,

1 20663U 90055A   22026.34877701  .00000513  00000-0  63151-4 0  9994
2 20663  62.7943   4.7233 0101977  34.7207 326.0486 14.92447298711083
Epoch (UTC): 26 January 2022 08:22:14
Eccentricity: 0.0101977
inclination: 62.7943°
perigee height: 519 km
apogee height: 661 km
right ascension of ascending node: 4.7233°
argument of perigee: 34.7207°
revolutions per day: 14.92447298
mean anomaly at epoch: 326.0486°
orbit number at epoch: 71108

The dashed part of the orbit path shows where the satellite is in the earth's shadow,  

DLR